Time,TemperatureF,DewpointF,PressureIn,WindDirection,WindDirectionDegrees,WindSpeedMPH,WindSpeedGustMPH,Humidity,HourlyPrecipIn,Conditions,Clouds,dailyrainin,SoftwareType,DateUTC
2013-08-30 00:01:00,72.1,65.6,29.94,SSE,158,0.0,0.0,80,0.00,,,0.00,Wunderground v.1.15,2013-08-30 04:01:00,
2013-08-30 00:05:00,71.9,65.4,29.94,SSE,158,0.0,0.0,80,0.00,,,0.00,Wunderground v.1.15,2013-08-30 04:05:00,
2013-08-30 00:10:00,71.5,65.7,29.94,SSE,158,0.0,0.0,82,0.00,,,0.00,Wunderground v.1.15,2013-08-30 04:10:00,
2013-08-30 00:16:00,71.3,65.9,29.95,SSE,158,0.0,0.0,83,0.00,,,0.00,Wunderground v.1.15,2013-08-30 04:16:00,
2013-08-30 00:26:00,70.7,65.3,29.94,SSE,158,0.0,0.0,83,0.00,,,0.00,Wunderground v.1.15,2013-08-30 04:26:00,
2013-08-30 00:35:00,70.2,65.5,29.94,SSE,158,0.0,0.0,85,0.00,,,0.00,Wunderground v.1.15,2013-08-30 04:35:00,
2013-08-30 00:40:00,70.2,65.5,29.94,SSE,158,0.0,0.0,85,0.00,,,0.00,Wunderground v.1.15,2013-08-30 04:40:00,
2013-08-30 00:46:00,70.2,65.8,29.94,SSE,158,0.0,0.0,86,0.00,,,0.00,Wunderground v.1.15,2013-08-30 04:46:00,
2013-08-30 00:50:00,70.4,65.7,29.94,SSE,158,0.0,0.0,85,0.00,,,0.00,Wunderground v.1.15,2013-08-30 04:50:00,
2013-08-30 00:56:00,70.5,65.8,29.94,SSE,158,0.0,0.0,85,0.00,,,0.00,Wunderground v.1.15,2013-08-30 04:56:00,
2013-08-30 01:05:00,70.6,65.5,29.93,SSE,158,0.0,0.0,84,0.00,,,0.00,Wunderground v.1.15,2013-08-30 05:05:00,
2013-08-30 01:10:00,70.2,65.5,29.93,SSE,158,0.0,0.0,85,0.00,,,0.00,Wunderground v.1.15,2013-08-30 05:10:00,
2013-08-30 01:15:00,69.8,65.1,29.93,SSE,158,0.0,0.0,85,0.00,,,0.00,Wunderground v.1.15,2013-08-30 05:15:00,
2013-08-30 01:21:00,69.5,65.1,29.93,SSE,158,0.0,0.0,86,0.00,,,0.00,Wunderground v.1.15,2013-08-30 05:21:00,
2013-08-30 01:31:00,69.4,65.0,29.93,SSE,158,0.0,1.0,86,0.00,,,0.00,Wunderground v.1.15,2013-08-30 05:31:00,
2013-08-30 01:41:00,69.4,65.4,29.93,SE,127,1.0,1.0,87,0.00,,,0.00,Wunderground v.1.15,2013-08-30 05:41:00,
2013-08-30 01:50:00,69.4,65.4,29.93,SE,127,0.0,0.0,87,0.00,,,0.00,Wunderground v.1.15,2013-08-30 05:50:00,
2013-08-30 01:56:00,69.3,65.3,29.93,SE,127,0.0,0.0,87,0.00,,,0.00,Wunderground v.1.15,2013-08-30 05:56:00,
2013-08-30 02:06:00,69.0,65.0,29.93,SE,127,0.0,0.0,87,0.00,,,0.00,Wunderground v.1.15,2013-08-30 06:06:00,
2013-08-30 02:15:00,68.7,65.3,29.93,SE,127,0.0,0.0,89,0.00,,,0.00,Wunderground v.1.15,2013-08-30 06:15:00,
2013-08-30 02:20:00,68.8,65.4,29.93,SE,126,0.0,0.0,89,0.00,,,0.00,Wunderground v.1.15,2013-08-30 06:20:00,
2013-08-30 02:25:00,68.9,65.5,29.93,SE,126,0.0,0.0,89,0.00,,,0.00,Wunderground v.1.15,2013-08-30 06:25:00,
2013-08-30 02:30:00,69.1,66.0,29.93,SE,126,0.0,0.0,90,0.00,,,0.00,Wunderground v.1.15,2013-08-30 06:30:00,
2013-08-30 02:36:00,69.4,66.3,29.92,SE,126,0.0,0.0,90,0.00,,,0.00,Wunderground v.1.15,2013-08-30 06:36:00,
2013-08-30 02:45:00,69.9,66.8,29.92,SSW,205,0.0,0.0,90,0.00,,,0.00,Wunderground v.1.15,2013-08-30 06:45:00,
2013-08-30 02:55:00,70.2,66.8,29.92,SSW,205,0.0,0.0,89,0.00,,,0.00,Wunderground v.1.15,2013-08-30 06:55:00,
2013-08-30 03:05:00,70.6,67.2,29.93,WSW,244,0.0,0.0,89,0.00,,,0.00,Wunderground v.1.15,2013-08-30 07:05:00,
2013-08-30 03:10:00,70.8,67.1,29.93,WSW,244,0.0,0.0,88,0.00,,,0.00,Wunderground v.1.15,2013-08-30 07:10:00,
2013-08-30 03:16:00,71.0,67.3,29.93,WSW,244,0.0,0.0,88,0.00,,,0.00,Wunderground v.1.15,2013-08-30 07:16:00,
2013-08-30 03:25:00,71.2,67.5,29.93,WSW,244,0.0,0.0,88,0.00,,,0.00,Wunderground v.1.15,2013-08-30 07:25:00,
2013-08-30 03:30:00,71.3,67.2,29.93,WSW,245,0.0,0.0,87,0.00,,,0.00,Wunderground v.1.15,2013-08-30 07:30:00,
2013-08-30 03:36:00,71.2,67.1,29.93,WSW,245,0.0,0.0,87,0.00,,,0.00,Wunderground v.1.15,2013-08-30 07:36:00,
2013-08-30 03:45:00,71.1,67.0,29.92,WSW,245,0.0,0.0,87,0.00,,,0.00,Wunderground v.1.15,2013-08-30 07:45:00,
2013-08-30 03:50:00,71.1,67.4,29.92,SSW,194,0.0,0.0,88,0.00,,,0.00,Wunderground v.1.15,2013-08-30 07:50:00,
2013-08-30 03:56:00,71.0,67.3,29.92,SSW,194,0.0,0.0,88,0.00,,,0.00,Wunderground v.1.15,2013-08-30 07:56:00,
2013-08-30 04:05:00,70.8,67.1,29.91,SSW,203,0.0,0.0,88,0.00,,,0.00,Wunderground v.1.15,2013-08-30 08:05:00,
2013-08-30 04:11:00,70.7,67.3,29.91,SSW,203,0.0,0.0,89,0.00,,,0.00,Wunderground v.1.15,2013-08-30 08:11:00,
2013-08-30 04:20:00,70.7,67.3,29.91,SSW,209,0.0,0.0,89,0.00,,,0.00,Wunderground v.1.15,2013-08-30 08:20:00,
2013-08-30 04:26:00,70.8,67.4,29.90,SSW,209,0.0,0.0,89,0.00,,,0.00,Wunderground v.1.15,2013-08-30 08:26:00,
2013-08-30 04:35:00,70.8,67.4,29.90,ENE,71,0.0,0.0,89,0.00,,,0.00,Wunderground v.1.15,2013-08-30 08:35:00,
2013-08-30 04:40:00,70.8,67.4,29.90,ENE,71,0.0,0.0,89,0.00,,,0.00,Wunderground v.1.15,2013-08-30 08:40:00,
2013-08-30 04:45:00,70.7,67.3,29.90,ENE,71,0.0,0.0,89,0.00,,,0.00,Wunderground v.1.15,2013-08-30 08:45:00,
2013-08-30 04:50:00,70.7,67.3,29.90,ENE,71,0.0,0.0,89,0.00,,,0.00,Wunderground v.1.15,2013-08-30 08:50:00,
2013-08-30 05:00:00,70.6,67.5,29.88,ENE,71,0.0,0.0,90,0.00,,,0.00,Wunderground v.1.15,2013-08-30 09:00:00,
2013-08-30 05:06:00,70.6,67.5,29.88,East,84,0.0,0.0,90,0.00,,,0.00,Wunderground v.1.15,2013-08-30 09:06:00,
2013-08-30 05:11:00,70.5,67.4,29.88,East,84,0.0,0.0,90,0.00,,,0.00,Wunderground v.1.15,2013-08-30 09:11:00,
2013-08-30 05:20:00,70.4,67.3,29.88,WNW,292,0.0,0.0,90,0.00,,,0.00,Wunderground v.1.15,2013-08-30 09:20:00,
2013-08-30 05:26:00,70.4,67.3,29.88,WNW,292,0.0,0.0,90,0.00,,,0.00,Wunderground v.1.15,2013-08-30 09:26:00,
2013-08-30 05:35:00,70.3,67.5,29.87,WNW,292,0.0,0.0,91,0.00,,,0.00,Wunderground v.1.15,2013-08-30 09:35:00,
2013-08-30 05:41:00,70.3,67.5,29.87,WNW,292,0.0,0.0,91,0.00,,,0.00,Wunderground v.1.15,2013-08-30 09:41:00,
2013-08-30 05:50:00,70.3,67.5,29.87,WNW,292,0.0,0.0,91,0.00,,,0.00,Wunderground v.1.15,2013-08-30 09:50:00,
2013-08-30 05:55:00,70.3,67.5,29.87,WNW,292,0.0,0.0,91,0.00,,,0.00,Wunderground v.1.15,2013-08-30 09:55:00,
2013-08-30 06:05:00,70.4,67.6,29.87,WSW,257,0.0,0.0,91,0.00,,,0.00,Wunderground v.1.15,2013-08-30 10:05:00,
2013-08-30 06:10:00,70.4,67.6,29.87,WSW,257,0.0,0.0,91,0.00,,,0.00,Wunderground v.1.15,2013-08-30 10:10:00,
2013-08-30 06:16:00,70.4,67.6,29.87,West,260,0.0,0.0,91,0.00,,,0.00,Wunderground v.1.15,2013-08-30 10:16:00,
2013-08-30 06:25:00,70.4,67.6,29.87,West,260,0.0,0.0,91,0.00,,,0.00,Wunderground v.1.15,2013-08-30 10:25:00,
2013-08-30 06:31:00,70.4,67.6,29.88,North,11,0.0,0.0,91,0.00,,,0.00,Wunderground v.1.15,2013-08-30 10:31:00,
2013-08-30 06:41:00,70.4,67.6,29.87,North,11,0.0,0.0,91,0.00,,,0.00,Wunderground v.1.15,2013-08-30 10:41:00,
2013-08-30 06:51:00,70.3,67.5,29.87,North,11,0.0,0.0,91,0.00,,,0.00,Wunderground v.1.15,2013-08-30 10:51:00,
2013-08-30 07:00:00,70.2,67.1,29.88,North,11,0.0,0.0,90,0.00,,,0.00,Wunderground v.1.15,2013-08-30 11:00:00,
2013-08-30 07:06:00,70.2,67.4,29.87,North,11,0.0,0.0,91,0.00,,,0.00,Wunderground v.1.15,2013-08-30 11:06:00,
2013-08-30 07:15:00,70.1,67.0,29.88,SSW,200,0.0,0.0,90,0.00,,,0.00,Wunderground v.1.15,2013-08-30 11:15:00,
2013-08-30 07:21:00,70.1,67.0,29.88,SW,217,0.0,0.0,90,0.00,,,0.00,Wunderground v.1.15,2013-08-30 11:21:00,
2013-08-30 07:30:00,70.1,67.3,29.88,SW,217,0.0,0.0,91,0.00,,,0.00,Wunderground v.1.15,2013-08-30 11:30:00,
2013-08-30 07:41:00,70.0,67.3,29.87,WSW,250,0.0,0.0,91,0.00,,,0.00,Wunderground v.1.15,2013-08-30 11:41:00,
2013-08-30 07:50:00,70.0,67.3,29.87,West,275,0.0,0.0,91,0.00,,,0.00,Wunderground v.1.15,2013-08-30 11:50:00,
2013-08-30 08:00:00,70.1,67.3,29.87,NNW,336,0.0,0.0,91,0.00,,,0.00,Wunderground v.1.15,2013-08-30 12:00:00,
2013-08-30 08:05:00,70.1,67.3,29.87,NNW,336,0.0,0.0,91,0.00,,,0.00,Wunderground v.1.15,2013-08-30 12:05:00,
2013-08-30 08:11:00,70.2,67.4,29.86,NNW,336,0.0,0.0,91,0.00,,,0.00,Wunderground v.1.15,2013-08-30 12:11:00,
2013-08-30 08:21:00,70.2,67.1,29.85,NW,323,0.0,1.0,90,0.00,,,0.00,Wunderground v.1.15,2013-08-30 12:21:00,
2013-08-30 08:30:00,70.3,67.2,29.84,North,355,1.0,1.0,90,0.00,,,0.00,Wunderground v.1.15,2013-08-30 12:30:00,
2013-08-30 08:41:00,70.3,67.2,29.85,West,270,1.0,1.0,90,0.00,,,0.00,Wunderground v.1.15,2013-08-30 12:41:00,
2013-08-30 08:50:00,70.7,67.9,29.85,West,269,0.0,0.0,91,0.00,,,0.00,Wunderground v.1.15,2013-08-30 12:50:00,
2013-08-30 08:56:00,71.2,68.4,29.85,West,269,0.0,0.0,91,0.00,,,0.00,Wunderground v.1.15,2013-08-30 12:56:00,
2013-08-30 09:05:00,72.2,69.1,29.84,West,269,0.0,1.0,90,0.00,,,0.00,Wunderground v.1.15,2013-08-30 13:05:00,
2013-08-30 09:11:00,72.6,69.2,29.83,West,269,1.0,1.0,89,0.00,,,0.00,Wunderground v.1.15,2013-08-30 13:11:00,
2013-08-30 09:20:00,73.2,69.4,29.83,West,279,2.0,2.0,88,0.00,,,0.00,Wunderground v.1.15,2013-08-30 13:20:00,
2013-08-30 09:31:00,74.0,69.9,29.83,West,273,1.0,1.0,87,0.00,,,0.00,Wunderground v.1.15,2013-08-30 13:31:00,
2013-08-30 09:36:00,74.4,69.9,29.82,West,267,1.0,1.0,86,0.00,,,0.00,Wunderground v.1.15,2013-08-30 13:36:00,
2013-08-30 09:45:00,75.1,70.3,29.82,West,272,2.0,5.0,85,0.00,,,0.00,Wunderground v.1.15,2013-08-30 13:45:00,
2013-08-30 09:50:00,75.5,70.3,29.82,WNW,290,3.0,4.0,84,0.00,,,0.00,Wunderground v.1.15,2013-08-30 13:50:00,
2013-08-30 10:00:00,76.2,70.7,29.83,WNW,294,2.0,2.0,83,0.00,,,0.00,Wunderground v.1.15,2013-08-30 14:00:00,
2013-08-30 10:06:00,76.6,70.3,29.84,West,264,2.0,4.0,81,0.00,,,0.00,Wunderground v.1.15,2013-08-30 14:06:00,
2013-08-30 10:15:00,77.1,70.5,29.83,WSW,254,4.0,5.0,80,0.00,,,0.00,Wunderground v.1.15,2013-08-30 14:15:00,
2013-08-30 10:25:00,77.2,70.9,29.83,West,279,4.0,4.0,81,0.00,,,0.00,Wunderground v.1.15,2013-08-30 14:25:00,
2013-08-30 10:30:00,77.4,70.7,29.83,West,263,3.0,3.0,80,0.00,,,0.00,Wunderground v.1.15,2013-08-30 14:30:00,
2013-08-30 10:35:00,77.6,70.6,29.83,SW,234,3.0,5.0,79,0.00,,,0.00,Wunderground v.1.15,2013-08-30 14:35:00,
2013-08-30 10:41:00,77.7,70.7,29.84,West,259,4.0,4.0,79,0.00,,,0.00,Wunderground v.1.15,2013-08-30 14:41:00,
2013-08-30 10:51:00,78.2,71.2,29.83,WSW,244,3.0,4.0,79,0.00,,,0.00,Wunderground v.1.15,2013-08-30 14:51:00,
2013-08-30 11:00:00,78.8,71.7,29.81,WNW,300,3.0,3.0,79,0.00,,,0.00,Wunderground v.1.15,2013-08-30 15:00:00,
2013-08-30 11:05:00,79.2,71.7,29.81,West,281,4.0,4.0,78,0.00,,,0.00,Wunderground v.1.15,2013-08-30 15:05:00,
2013-08-30 11:15:00,79.8,71.9,29.81,West,272,5.0,6.0,77,0.00,,,0.00,Wunderground v.1.15,2013-08-30 15:15:00,
2013-08-30 11:21:00,80.1,71.8,29.81,WSW,247,3.0,3.0,76,0.00,,,0.00,Wunderground v.1.15,2013-08-30 15:21:00,
2013-08-30 11:30:00,80.9,72.6,29.81,NNW,327,3.0,3.0,76,0.00,,,0.00,Wunderground v.1.15,2013-08-30 15:30:00,
2013-08-30 11:40:00,81.2,71.7,29.81,West,259,3.0,10.0,73,0.00,,,0.00,Wunderground v.1.15,2013-08-30 15:40:00,
2013-08-30 11:50:00,81.5,72.0,29.81,WNW,288,5.0,5.0,73,0.00,,,0.00,Wunderground v.1.15,2013-08-30 15:50:00,
2013-08-30 11:56:00,81.6,71.7,29.80,West,269,5.0,5.0,72,0.00,,,0.00,Wunderground v.1.15,2013-08-30 15:56:00,
2013-08-30 12:06:00,82.5,73.4,29.80,NNW,335,2.0,4.0,74,0.00,,,0.00,Wunderground v.1.15,2013-08-30 16:06:00,
2013-08-30 12:15:00,82.6,71.4,29.80,WSW,248,5.0,5.0,69,0.00,,,0.00,Wunderground v.1.15,2013-08-30 16:15:00,
2013-08-30 12:25:00,83.0,72.6,29.80,West,270,4.0,6.0,71,0.00,,,0.00,Wunderground v.1.15,2013-08-30 16:25:00,
2013-08-30 12:31:00,83.0,70.9,29.79,WSW,254,5.0,5.0,67,0.00,,,0.00,Wunderground v.1.15,2013-08-30 16:31:00,
2013-08-30 12:40:00,83.4,72.2,29.79,WNW,284,4.0,6.0,69,0.00,,,0.00,Wunderground v.1.15,2013-08-30 16:40:00,
2013-08-30 12:50:00,83.6,72.3,29.78,WSW,246,5.0,5.0,69,0.00,,,0.00,Wunderground v.1.15,2013-08-30 16:50:00,
2013-08-30 13:00:00,83.9,72.2,29.78,WSW,253,5.0,6.0,68,0.00,,,0.00,Wunderground v.1.15,2013-08-30 17:00:00,
2013-08-30 13:05:00,84.0,72.7,29.78,West,266,5.0,6.0,69,0.00,,,0.00,Wunderground v.1.15,2013-08-30 17:05:00,
2013-08-30 13:11:00,83.8,71.7,29.78,WNW,292,4.0,4.0,67,0.00,,,0.00,Wunderground v.1.15,2013-08-30 17:11:00,
2013-08-30 13:21:00,83.8,71.7,29.78,West,281,6.0,6.0,67,0.00,,,0.00,Wunderground v.1.15,2013-08-30 17:21:00,
2013-08-30 13:30:00,83.9,72.6,29.77,WSW,254,5.0,5.0,69,0.00,,,0.00,Wunderground v.1.15,2013-08-30 17:30:00,
2013-08-30 13:36:00,84.4,71.8,29.76,West,261,4.0,6.0,66,0.00,,,0.00,Wunderground v.1.15,2013-08-30 17:36:00,
2013-08-30 13:46:00,84.8,73.1,29.76,West,273,3.0,5.0,68,0.00,,,0.00,Wunderground v.1.15,2013-08-30 17:46:00,
2013-08-30 13:55:00,85.2,71.2,29.76,SW,232,3.0,7.0,63,0.00,,,0.00,Wunderground v.1.15,2013-08-30 17:55:00,
2013-08-30 14:01:00,85.1,71.5,29.75,WSW,242,5.0,5.0,64,0.00,,,0.00,Wunderground v.1.15,2013-08-30 18:01:00,
2013-08-30 14:10:00,85.5,73.7,29.75,West,259,3.0,3.0,68,0.00,,,0.00,Wunderground v.1.15,2013-08-30 18:10:00,
2013-08-30 14:20:00,85.9,72.8,29.75,West,271,2.0,7.0,65,0.00,,,0.00,Wunderground v.1.15,2013-08-30 18:20:00,
2013-08-30 14:31:00,85.7,72.1,29.75,West,270,4.0,4.0,64,0.00,,,0.00,Wunderground v.1.15,2013-08-30 18:31:00,
2013-08-30 14:40:00,85.8,72.2,29.74,West,269,4.0,4.0,64,0.00,,,0.00,Wunderground v.1.15,2013-08-30 18:40:00,
2013-08-30 14:45:00,85.6,71.6,29.74,West,261,6.0,6.0,63,0.00,,,0.00,Wunderground v.1.15,2013-08-30 18:45:00,
2013-08-30 14:51:00,85.7,73.0,29.74,West,261,5.0,7.0,66,0.00,,,0.00,Wunderground v.1.15,2013-08-30 18:51:00,
2013-08-30 15:00:00,85.7,71.7,29.73,WSW,252,6.0,9.0,63,0.00,,,0.00,Wunderground v.1.15,2013-08-30 19:00:00,
2013-08-30 15:06:00,85.2,71.6,29.72,WNW,283,7.0,10.0,64,0.00,,,0.00,Wunderground v.1.15,2013-08-30 19:06:00,
2013-08-30 15:16:00,85.7,73.5,29.72,WNW,297,5.0,5.0,67,0.00,,,0.00,Wunderground v.1.15,2013-08-30 19:16:00,
2013-08-30 15:21:00,86.0,72.9,29.71,WSW,243,4.0,4.0,65,0.00,,,0.00,Wunderground v.1.15,2013-08-30 19:21:00,
2013-08-30 15:26:00,86.1,72.0,29.71,WSW,257,4.0,4.0,63,0.00,,,0.00,Wunderground v.1.15,2013-08-30 19:26:00,
2013-08-30 15:35:00,86.2,72.1,29.70,WNW,290,4.0,4.0,63,0.00,,,0.00,Wunderground v.1.15,2013-08-30 19:35:00,
2013-08-30 15:41:00,86.4,72.3,29.70,WNW,301,4.0,4.0,63,0.00,,,0.00,Wunderground v.1.15,2013-08-30 19:41:00,
2013-08-30 15:50:00,86.7,73.5,29.70,WNW,286,4.0,4.0,65,0.00,,,0.00,Wunderground v.1.15,2013-08-30 19:50:00,
2013-08-30 15:56:00,86.8,72.7,29.69,WNW,288,4.0,9.0,63,0.00,,,0.00,Wunderground v.1.15,2013-08-30 19:56:00,
2013-08-30 16:05:00,86.7,72.6,29.69,West,265,5.0,6.0,63,0.00,,,0.00,Wunderground v.1.15,2013-08-30 20:05:00,
2013-08-30 16:16:00,86.8,72.7,29.69,WNW,293,6.0,6.0,63,0.00,,,0.00,Wunderground v.1.15,2013-08-30 20:16:00,
2013-08-30 16:26:00,86.9,74.2,29.69,SW,236,6.0,6.0,66,0.00,,,0.00,Wunderground v.1.15,2013-08-30 20:26:00,
2013-08-30 16:35:00,86.7,73.1,29.68,WSW,256,6.0,6.0,64,0.00,,,0.00,Wunderground v.1.15,2013-08-30 20:35:00,
2013-08-30 16:41:00,86.6,73.4,29.68,WSW,253,5.0,5.0,65,0.00,,,0.00,Wunderground v.1.15,2013-08-30 20:41:00,
2013-08-30 16:46:00,86.6,73.0,29.68,West,266,5.0,8.0,64,0.00,,,0.00,Wunderground v.1.15,2013-08-30 20:46:00,
2013-08-30 16:55:00,86.3,72.7,29.68,WSW,254,6.0,6.0,64,0.00,,,0.00,Wunderground v.1.15,2013-08-30 20:55:00,
2013-08-30 17:00:00,86.2,73.5,29.68,WNW,282,5.0,5.0,66,0.00,,,0.00,Wunderground v.1.15,2013-08-30 21:00:00,
2013-08-30 17:05:00,86.2,73.0,29.67,SW,228,5.0,6.0,65,0.00,,,0.00,Wunderground v.1.15,2013-08-30 21:05:00,
2013-08-30 17:15:00,86.1,73.0,29.68,West,261,5.0,9.0,65,0.00,,,0.00,Wunderground v.1.15,2013-08-30 21:15:00,
2013-08-30 17:25:00,86.1,73.4,29.68,West,262,4.0,5.0,66,0.00,,,0.00,Wunderground v.1.15,2013-08-30 21:25:00,
2013-08-30 17:35:00,86.1,73.9,29.68,West,265,3.0,4.0,67,0.00,,,0.00,Wunderground v.1.15,2013-08-30 21:35:00,
2013-08-30 17:46:00,85.8,73.6,29.67,West,260,3.0,4.0,67,0.00,,,0.00,Wunderground v.1.15,2013-08-30 21:46:00,
2013-08-30 17:51:00,85.5,73.3,29.67,WSW,257,4.0,4.0,67,0.00,,,0.00,Wunderground v.1.15,2013-08-30 21:51:00,
2013-08-30 18:01:00,85.0,73.3,29.69,West,261,3.0,3.0,68,0.00,,,0.00,Wunderground v.1.15,2013-08-30 22:01:00,
2013-08-30 18:06:00,84.8,73.5,29.70,WSW,254,2.0,3.0,69,0.00,,,0.00,Wunderground v.1.15,2013-08-30 22:06:00,
2013-08-30 18:15:00,84.3,73.4,29.69,WSW,245,3.0,4.0,70,0.00,,,0.00,Wunderground v.1.15,2013-08-30 22:15:00,
2013-08-30 18:25:00,83.9,73.1,29.69,WSW,254,3.0,4.0,70,0.00,,,0.00,Wunderground v.1.15,2013-08-30 22:25:00,
2013-08-30 18:31:00,83.9,73.5,29.69,West,259,4.0,4.0,71,0.00,,,0.00,Wunderground v.1.15,2013-08-30 22:31:00,
2013-08-30 18:40:00,83.7,73.7,29.70,West,275,5.0,5.0,72,0.00,,,0.00,Wunderground v.1.15,2013-08-30 22:40:00,
2013-08-30 18:45:00,83.5,73.5,29.69,WNW,286,5.0,5.0,72,0.00,,,0.00,Wunderground v.1.15,2013-08-30 22:45:00,
2013-08-30 18:55:00,82.6,73.9,29.70,WNW,292,6.0,6.0,75,0.00,,,0.00,Wunderground v.1.15,2013-08-30 22:55:00,
2013-08-30 19:00:00,82.3,73.6,29.70,West,279,7.0,8.0,75,0.00,,,0.00,Wunderground v.1.15,2013-08-30 23:00:00,
2013-08-30 19:11:00,81.7,74.2,29.71,NNW,329,6.0,9.0,78,0.00,,,0.00,Wunderground v.1.15,2013-08-30 23:11:00,
2013-08-30 19:21:00,79.6,74.0,29.71,NNW,335,6.0,6.0,83,0.00,,,0.00,Wunderground v.1.15,2013-08-30 23:21:00,
2013-08-30 19:31:00,78.6,73.7,29.70,WNW,299,6.0,8.0,85,0.00,,,0.00,Wunderground v.1.15,2013-08-30 23:31:00,
2013-08-30 19:36:00,78.3,73.8,29.71,NW,306,7.0,8.0,86,0.00,,,0.00,Wunderground v.1.15,2013-08-30 23:36:00,
2013-08-30 19:45:00,78.1,73.2,29.70,NW,310,6.0,6.0,85,0.00,,,0.00,Wunderground v.1.15,2013-08-30 23:45:00,
2013-08-30 19:51:00,78.0,73.1,29.71,West,281,7.0,7.0,85,0.00,,,0.00,Wunderground v.1.15,2013-08-30 23:51:00,
2013-08-30 19:56:00,77.9,73.0,29.71,WNW,298,7.0,7.0,85,0.00,,,0.00,Wunderground v.1.15,2013-08-30 23:56:00,
2013-08-30 20:05:00,77.7,72.8,29.71,WNW,294,8.0,8.0,85,0.00,,,0.00,Wunderground v.1.15,2013-08-31 00:05:00,
2013-08-30 20:11:00,77.5,72.6,29.71,NW,310,7.0,7.0,85,0.00,,,0.00,Wunderground v.1.15,2013-08-31 00:11:00,
2013-08-30 20:16:00,77.4,72.5,29.71,NW,307,7.0,10.0,85,0.00,,,0.00,Wunderground v.1.15,2013-08-31 00:16:00,
2013-08-30 20:21:00,77.2,72.7,29.71,WNW,296,7.0,7.0,86,0.00,,,0.00,Wunderground v.1.15,2013-08-31 00:21:00,
2013-08-30 20:31:00,77.1,72.6,29.71,WNW,293,7.0,7.0,86,0.00,,,0.00,Wunderground v.1.15,2013-08-31 00:31:00,
2013-08-30 20:40:00,77.0,72.8,29.71,WNW,300,8.0,8.0,87,0.00,,,0.00,Wunderground v.1.15,2013-08-31 00:40:00,
2013-08-30 20:45:00,76.8,72.6,29.71,WNW,289,7.0,8.0,87,0.00,,,0.00,Wunderground v.1.15,2013-08-31 00:45:00,
2013-08-30 20:51:00,76.6,72.8,29.71,NW,304,6.0,6.0,88,0.00,,,0.00,Wunderground v.1.15,2013-08-31 00:51:00,
2013-08-30 21:01:00,76.2,72.4,29.72,NW,311,5.0,9.0,88,0.00,,,0.00,Wunderground v.1.15,2013-08-31 01:01:00,
2013-08-30 21:10:00,75.8,72.3,29.72,WNW,296,5.0,5.0,89,0.00,,,0.00,Wunderground v.1.15,2013-08-31 01:10:00,
2013-08-30 21:16:00,75.7,72.6,29.72,WNW,301,4.0,5.0,90,0.00,,,0.00,Wunderground v.1.15,2013-08-31 01:16:00,
2013-08-30 21:25:00,75.4,72.3,29.72,NW,315,5.0,6.0,90,0.00,,,0.00,Wunderground v.1.15,2013-08-31 01:25:00,
2013-08-30 21:35:00,75.1,71.6,29.73,WNW,292,5.0,6.0,89,0.00,,,0.00,Wunderground v.1.15,2013-08-31 01:35:00,
2013-08-30 21:41:00,75.1,71.3,29.73,NW,307,5.0,5.0,88,0.00,,,0.00,Wunderground v.1.15,2013-08-31 01:41:00,
2013-08-30 21:46:00,75.0,71.2,29.73,NW,315,3.0,5.0,88,0.00,,,0.00,Wunderground v.1.15,2013-08-31 01:46:00,
2013-08-30 21:55:00,74.8,70.7,29.73,NNW,330,4.0,10.0,87,0.00,,,0.00,Wunderground v.1.15,2013-08-31 01:55:00,
2013-08-30 22:05:00,74.6,70.1,29.73,NNW,348,5.0,7.0,86,0.00,,,0.00,Wunderground v.1.15,2013-08-31 02:05:00,
2013-08-30 22:11:00,74.5,69.7,29.73,NNW,332,6.0,7.0,85,0.00,,,0.00,Wunderground v.1.15,2013-08-31 02:11:00,
2013-08-30 22:20:00,74.2,69.4,29.73,NW,326,7.0,10.0,85,0.00,,,0.00,Wunderground v.1.15,2013-08-31 02:20:00,
2013-08-30 22:31:00,73.9,69.4,29.73,NNW,339,6.0,12.0,86,0.00,,,0.00,Wunderground v.1.15,2013-08-31 02:31:00,
2013-08-30 22:36:00,73.7,69.2,29.73,NNW,337,7.0,12.0,86,0.00,,,0.00,Wunderground v.1.15,2013-08-31 02:36:00,
2013-08-30 22:45:00,73.1,68.3,29.74,NW,315,7.0,7.0,85,0.00,,,0.00,Wunderground v.1.15,2013-08-31 02:45:00,
2013-08-30 22:50:00,72.7,67.6,29.73,NNW,340,7.0,7.0,84,0.00,,,0.00,Wunderground v.1.15,2013-08-31 02:50:00,
2013-08-30 23:01:00,72.2,67.4,29.73,NNW,330,9.0,9.0,85,0.00,,,0.00,Wunderground v.1.15,2013-08-31 03:01:00,
2013-08-30 23:10:00,71.5,66.8,29.73,NNW,339,7.0,7.0,85,0.00,,,0.00,Wunderground v.1.15,2013-08-31 03:10:00,
2013-08-30 23:15:00,71.1,66.7,29.74,NNW,335,6.0,9.0,86,0.00,,,0.00,Wunderground v.1.15,2013-08-31 03:15:00,
2013-08-30 23:21:00,70.6,66.2,29.74,NNW,340,6.0,8.0,86,0.00,,,0.00,Wunderground v.1.15,2013-08-31 03:21:00,
2013-08-30 23:30:00,70.0,66.0,29.74,NW,326,6.0,6.0,87,0.00,,,0.00,Wunderground v.1.15,2013-08-31 03:30:00,
2013-08-30 23:41:00,69.4,65.7,29.75,WNW,294,5.0,5.0,88,0.00,,,0.00,Wunderground v.1.15,2013-08-31 03:41:00,
2013-08-30 23:46:00,69.2,65.8,29.74,NW,315,4.0,5.0,89,0.00,,,0.00,Wunderground v.1.15,2013-08-31 03:46:00,
2013-08-30 23:56:00,68.8,65.4,29.75,NW,320,3.0,4.0,89,0.00,,,0.00,Wunderground v.1.15,2013-08-31 03:56:00,